Wind_Speed
1 3 4 5 4 5 7 8 10 6 3 3 5 7 9 9 8 4 2 3 1 5 11 13 16 16 15 13 11 15 20 20 20 18 19 19 19 20 23 28 31 34 39 40 38 37 36 36 35 35 36 35 35 35 34 34 35 35 34 34 34 33 32 33 35 38 41 43 45 45 46 47 47 47 47 47 46 44 44 45 43 41 39 38 37 37
1 4 5 6 5 5 6 7 8 6 4 6 6 8 9 9 9 5 3 6 5 6 11 13 16 17 16 14 13 14 15 18 20 18 20 22 23 23 23 26 30 33 39 41 41 39 38 37 36 36 37 37 37 37 36 37 37 36 36 37 37 36 35 35 35 36 40 44 46 47 48 49 49 49 50 50 49 48 47 47 46 44 42 41 40 39
3 6 5 5 6 6 6 5 6 7 7 7 6 7 8 6 6 5 3 4 5 6 9 12 13 15 15 14 15 16 16 20 25 23 23 25 26 26 24 24 24 27 31 35 39 40 39 36 34 34 35 36 37 37 37 38 38 38 38 39 38 38 38 38 38 37 39 41 42 44 46 48 49 49 50 51 51 52 51 50 50 48 46 46 44 43
3 2 1 2 6 7 7 6 6 6 6 7 7 7 8 5 4 5 3 2 4 6 9 12 13 13 14 14 16 21 23 25 26 28 30 30 27 26 25 26 25 26 29 32 36 37 35 32 30 31 33 34 36 37 38 38 39 39 39 39 39 39 39 39 39 39 38 39 40 41 42 44 46 48 49 50 51 52 51 51 53 53 51 50 49 46
7 2 3 3 5 7 8 7 7 7 6 8 10 9 8 6 6 7 6 4 6 9 11 12 11 12 12 12 13 17 21 23 24 26 28 27 25 25 27 31 32 31 32 34 34 32 31 32 33 34 35 35 36 37 37 37 37 37 38 38 38 38 38 38 38 37 37 38 40 41 43 44 46 49 50 51 52 51 50 52 53 53 53 53 52 49
8 3 3 5 5 7 8 7 8 7 5 7 9 11 11 10 10 10 11 9 8 8 6 5 7 9 7 8 9 7 9 15 16 16 20 22 21 21 22 26 30 31 31 30 30 30 31 33 34 34 34 33 34 34 34 35 35 35 35 35 35 36 36 36 36 35 35 37 39 41 43 46 47 50 52 52 53 53 52 53 52 51 53 55 54 51
4 0 3 7 7 7 7 7 8 8 6 6 4 7 10 11 11 10 10 8 6 6 2 2 5 9 7 5 8 6 6 9 10 10 15 17 17 18 19 20 24 24 21 18 19 22 25 26 27 28 28 29 31 31 32 33 33 34 34 34 35 35 35 36 35 33 34 36 38 40 42 45 47 49 51 50 50 51 53 53 51 50 52 54 54 52
3 2 3 6 7 8 8 8 7 9 7 4 3 4 4 6 7 7 8 7 6 8 7 5 6 10 11 4 5 8 6 4 7 9 10 13 17 17 13 10 10 11 10 9 10 12 16 19 20 21 23 24 26 27 29 31 31 32 32 33 33 34 34 35 34 34 34 36 38 40 42 44 47 49 49 48 48 48 49 52 52 51 52 53 53 51
3 3 4 6 7 8 8 5 5 9 8 2 4 3 2 1 3 4 6 7 7 8 9 10 9 8 10 2 5 6 5 3 7 8 8 12 12 5 3 6 7 7 7 6 7 7 8 10 12 13 15 16 18 20 23 25 27 28 29 30 31 32 33 33 33 33 35 36 37 38 41 44 46 47 47 47 48 46 47 50 53 53 53 53 53 52
2 1 1 3 7 7 5 3 5 9 8 1 3 0 1 1 4 5 5 6 7 8 10 11 8 6 10 5 4 6 6 6 8 7 8 8 2 9 9 8 9 9 9 8 9 9 9 9 10 11 12 13 14 16 18 20 23 24 26 27 28 29 30 31 32 33 35 36 37 38 41 43 44 45 45 46 47 47 47 48 51 53 54 54 54 54
3 2 2 4 9 6 3 3 5 8 7 0 1 4 5 5 6 6 6 6 5 8 13 11 9 8 9 8 6 7 5 4 5 6 7 2 9 10 8 9 10 10 11 12 12 12 13 13 14 14 13 13 14 15 16 17 19 21 22 24 26 27 27 28 30 32 34 36 38 39 41 42 43 44 44 45 46 47 48 47 49 51 53 55 56 55
4 6 4 4 8 8 5 5 5 5 5 3 4 5 5 5 5 4 5 5 5 8 9 6 11 12 9 8 3 5 4 5 7 8 7 3 9 9 8 9 10 12 14 15 16 16 15 15 15 17 17 16 15 16 17 17 17 19 20 22 24 25 26 27 28 30 33 35 38 40 41 41 42 42 43 45 45 46 47 47 47 50 51 54 55 55
2 5 4 1 4 9 8 5 5 4 5 6 6 5 3 3 2 3 5 5 6 8 2 7 12 11 10 15 12 5 5 9 10 7 4 8 10 9 8 9 11 14 15 17 19 19 19 19 19 20 21 20 19 20 21 20 19 19 19 21 23 24 25 27 28 30 32 34 37 39 40 41 42 42 43 45 45 44 45 46 47 49 51 54 55 55
2 2 4 3 3 10 11 6 5 6 8 9 9 7 5 3 2 4 5 4 5 8 4 9 10 7 8 13 10 4 4 4 3 7 9 12 11 9 8 8 10 12 15 18 19 21 22 22 22 23 23 23 23 24 24 23 23 21 21 21 22 23 23 25 28 30 31 33 36 37 39 40 41 42 43 44 45 45 45 45 46 48 50 52 54 54
4 3 4 6 2 7 14 10 3 3 6 9 9 8 6 5 4 5 4 4 4 4 3 8 8 7 7 2 5 5 7 9 11 14 14 13 11 9 8 9 11 13 16 19 21 21 22 22 22 23 23 24 25 26 27 27 27 25 24 23 24 24 23 24 26 29 31 32 34 36 38 39 40 41 42 44 45 46 46 46 46 47 48 50 51 52
5 6 2 3 1 4 11 9 4 3 4 6 7 8 8 6 5 5 5 4 5 6 4 5 5 6 6 3 9 7 8 10 10 13 14 12 10 9 10 11 12 13 15 18 20 21 22 21 22 23 23 24 24 26 27 29 30 29 28 26 25 26 25 24 25 27 30 32 33 35 37 39 39 40 41 43 44 45 46 46 47 47 48 49 50 50
4 3 1 2 2 5 6 5 7 7 3 4 7 7 4 1 3 6 7 6 6 8 7 6 7 8 8 3 9 10 10 9 8 10 11 10 11 11 12 11 11 12 13 15 17 20 21 21 22 22 23 24 24 25 27 28 30 31 31 30 28 27 26 25 25 27 28 31 33 35 36 37 39 40 41 41 43 44 45 46 48 48 47 49 50 50
4 4 1 4 5 4 2 1 5 7 3 4 7 5 2 1 2 4 5 5 6 9 7 8 10 10 8 5 7 11 9 8 7 7 8 9 11 11 11 11 11 11 12 13 15 19 21 21 22 22 23 24 24 25 27 28 30 31 32 32 31 29 26 26 26 27 27 29 32 34 35 36 37 39 40 40 40 42 44 45 47 47 47 49 50 50
2 4 2 4 4 2 3 2 6 6 5 3 2 2 1 3 5 6 6 5 6 9 6 8 12 10 9 6 5 9 9 9 7 6 6 8 10 10 10 11 12 12 12 14 16 19 21 22 22 22 23 24 24 25 26 28 29 31 32 33 33 31 27 25 25 26 27 28 30 32 34 35 35 37 38 38 38 39 42 43 45 46 47 49 50 49
2 4 3 2 2 1 2 5 7 6 5 1 3 3 3 4 4 5 6 5 7 9 7 7 9 8 9 6 5 9 10 9 7 6 6 6 8 9 9 11 13 14 14 15 16 18 21 22 21 21 22 23 24 25 26 28 29 31 33 33 34 33 30 26 24 25 26 26 28 30 32 33 33 34 35 35 35 37 39 41 43 45 47 47 48 48
3 4 4 1 1 2 4 6 8 8 7 6 7 6 5 4 2 3 5 5 6 8 7 7 8 6 3 1 3 9 10 8 7 6 5 5 7 7 8 10 13 15 15 15 16 17 20 22 22 21 21 22 23 24 26 27 29 30 32 33 35 35 34 30 26 24 24 25 25 27 30 31 31 31 32 33 34 35 37 39 41 44 45 45 46 48
3 3 6 4 3 7 6 1 2 5 5 7 9 8 8 7 5 6 8 6 5 7 7 7 9 7 2 3 3 8 8 7 7 6 5 4 5 5 6 8 11 14 14 14 15 16 18 21 22 20 21 21 22 23 25 27 28 30 31 33 34 35 36 34 29 26 24 24 24 24 26 29 29 29 29 30 32 33 35 37 39 41 42 44 45 46
5 2 5 7 6 7 3 3 3 3 3 4 6 6 7 7 7 10 11 8 6 8 7 7 11 9 2 3 4 6 7 7 6 4 3 3 2 2 4 7 10 13 14 14 14 15 17 20 20 20 20 20 21 22 24 26 27 29 30 31 32 33 35 36 33 28 25 23 23 23 23 25 27 28 27 28 30 31 32 34 36 38 39 42 44 45
5 2 7 9 6 3 3 1 1 2 2 4 5 4 5 7 8 9 8 6 6 8 9 9 12 9 2 3 3 5 7 6 4 2 1 2 3 3 6 10 13 16 15 14 13 13 16 18 18 19 19 20 21 22 22 24 25 27 28 29 31 32 33 35 35 31 26 23 22 22 22 22 23 25 26 26 28 29 30 31 33 35 36 39 42 43
6 4 7 8 7 5 4 6 5 2 3 5 6 6 7 8 8 4 1 2 6 10 11 11 12 8 2 3 4 6 7 6 7 9 9 8 5 4 8 13 19 21 17 14 14 14 16 17 17 18 20 21 21 22 22 22 23 24 25 27 29 30 31 33 35 34 29 25 23 21 21 20 20 22 23 24 26 27 28 28 30 32 34 37 40 42
6 6 8 8 9 10 8 8 8 8 7 5 5 9 9 10 11 6 4 7 10 11 12 11 11 9 7 7 7 6 7 9 11 13 13 10 5 5 10 14 21 23 17 14 15 16 17 17 17 18 20 22 22 22 21 21 21 22 23 24 26 29 30 31 34 35 33 28 24 22 21 20 19 20 20 21 22 23 25 26 28 29 31 34 37 39
4 5 9 11 12 13 11 9 10 10 8 7 10 15 15 14 14 10 7 11 11 10 12 12 9 11 16 18 14 11 12 14 14 16 17 12 5 7 11 16 21 19 14 14 15 16 17 17 16 17 21 23 23 21 20 20 20 20 21 23 24 26 28 29 31 34 35 32 26 23 22 21 20 20 19 19 19 20 21 23 25 27 28 30 33 36
2 5 11 14 16 15 14 14 14 12 11 12 14 17 18 18 17 13 12 15 12 10 11 9 9 14 19 18 17 16 15 15 15 16 16 11 7 8 11 16 19 16 13 14 15 16 17 16 16 18 21 22 20 18 17 17 17 18 19 21 22 24 26 28 29 30 33 33 30 25 22 22 21 21 20 19 19 19 20 21 23 25 26 27 30 34
3 4 6 10 13 14 14 16 17 15 12 13 15 16 18 21 21 17 16 17 15 11 10 9 13 17 17 16 18 17 16 18 18 14 11 8 8 10 13 14 16 15 14 14 15 15 15 15 17 19 19 19 17 16 16 16 16 17 17 18 20 22 23 26 27 28 30 32 32 27 23 21 21 22 21 20 19 18 18 19 21 22 24 25 28 31
3 3 4 8 11 13 14 15 17 19 16 14 16 18 18 19 20 19 18 18 18 15 13 13 17 18 16 17 20 18 18 18 14 9 9 12 11 11 12 13 14 14 15 15 15 14 13 13 15 16 15 15 15 16 16 17 16 16 17 18 19 20 21 23 25 27 27 29 31 30 25 21 20 21 21 21 20 19 17 18 19 20 22 24 26 27
5 5 7 9 9 10 13 14 16 19 19 17 18 20 20 19 17 16 15 15 15 14 15 19 20 17 15 17 22 20 14 10 8 11 16 18 14 10 11 13 13 14 14 15 15 14 13 12 12 13 14 15 16 17 18 18 17 17 18 18 19 19 20 22 23 25 26 26 28 29 28 23 19 18 19 21 21 20 18 16 17 18 20 22 24 25
5 5 6 7 9 9 9 12 17 19 19 20 21 20 20 19 16 13 13 14 14 14 17 19 16 12 12 16 20 16 7 7 14 20 21 18 12 10 11 13 14 14 14 15 16 13 11 11 11 13 14 15 16 17 18 19 18 18 19 19 20 20 20 21 22 23 25 25 25 26 28 26 21 17 16 18 20 21 19 17 16 17 18 21 22 24
5 5 6 7 9 9 9 12 15 16 16 16 15 16 19 20 20 18 16 18 19 17 15 14 12 13 15 17 18 13 9 13 19 20 18 14 11 11 14 15 15 15 15 16 15 11 9 10 11 13 13 14 15 16 18 19 19 20 20 20 21 21 20 20 21 22 23 24 23 24 26 27 24 19 15 15 18 20 20 19 17 16 17 18 20 22
8 8 7 8 8 9 11 12 12 13 14 9 4 9 17 21 23 23 20 20 21 19 16 16 16 16 16 16 17 17 16 18 18 16 14 13 13 15 16 18 18 17 17 15 12 10 10 10 11 12 12 13 14 16 17 18 19 20 21 21 21 21 21 21 21 21 22 23 23 22 23 25 26 22 18 15 14 17 20 20 18 16 16 16 18 20
9 9 8 7 7 9 10 11 12 12 9 6 6 12 17 20 22 24 24 24 24 22 21 21 20 19 18 19 21 23 23 19 15 13 15 18 21 19 17 19 21 19 17 14 10 10 11 10 10 10 11 12 13 15 17 18 19 20 21 21 22 22 22 22 22 21 21 22 22 21 21 23 25 25 22 18 14 14 17 19 19 17 16 16 17 19
11 9 8 7 8 8 8 10 12 8 4 4 8 12 15 18 19 21 22 23 22 19 19 21 21 22 22 23 27 29 25 15 10 15 24 27 27 24 19 22 25 22 17 14 11 11 11 10 9 8 9 10 12 14 16 18 19 20 20 21 22 22 22 23 23 21 20 21 21 21 20 21 23 24 24 21 17 14 14 16 19 18 17 16 16 18
13 10 7 8 7 7 8 10 11 10 9 8 7 7 11 14 14 14 15 16 17 18 19 19 21 23 21 24 31 30 19 7 6 18 27 28 29 29 26 27 27 22 17 15 13 12 10 8 7 6 6 9 11 13 15 17 18 20 20 21 21 22 22 23 24 22 20 20 21 21 21 20 21 23 24 23 21 17 14 14 16 19 19 18 17 17
15 12 9 9 8 7 9 9 9 11 12 10 9 11 15 17 17 15 13 14 14 18 20 19 20 21 19 22 28 21 9 5 7 14 22 25 27 29 28 27 24 20 18 16 14 11 9 7 6 5 5 7 10 12 14 16 17 19 21 21 20 21 22 23 24 24 22 21 21 22 22 20 20 21 22 23 23 20 17 14 14 17 20 20 19 18
15 13 11 10 8 8 8 9 9 9 8 9 12 14 18 23 22 17 15 14 11 14 19 19 18 19 20 22 21 11 6 6 8 12 21 25 24 24 25 24 22 20 19 16 13 10 9 6 6 5 5 6 8 10 12 15 16 18 20 21 21 20 21 23 24 25 25 23 22 22 22 21 19 19 21 22 23 22 20 17 14 14 17 21 21 20
10 10 9 10 10 10 10 9 8 7 7 9 13 14 17 24 23 18 15 10 8 13 19 18 17 20 24 22 15 9 8 9 9 14 23 23 22 24 24 23 22 20 18 15 12 10 9 7 6 6 6 6 7 8 11 14 16 17 19 21 22 21 20 21 23 24 25 25 24 23 22 21 20 19 20 21 22 23 22 20 17 14 15 18 21 22
5 6 7 8 10 11 12 10 7 6 8 11 15 16 15 15 14 14 13 5 7 16 24 24 24 25 23 16 12 9 14 19 20 19 18 17 19 22 21 20 19 18 16 14 12 11 9 6 6 7 7 6 6 7 10 13 15 17 17 19 22 22 21 21 22 23 25 25 25 23 22 21 20 19 19 20 21 22 22 22 19 17 14 15 18 22
4 4 5 6 7 8 9 8 8 7 4 6 13 14 9 8 7 8 12 13 13 19 22 20 19 18 13 12 13 16 21 27 28 22 15 13 18 22 21 19 19 17 15 14 13 11 8 5 5 7 8 8 7 8 9 10 13 16 17 18 20 22 22 22 21 22 24 25 25 24 23 22 21 20 19 19 20 21 21 22 21 19 16 15 16 19
5 4 5 6 6 6 7 7 7 5 2 7 11 8 4 5 4 11 12 14 15 13 12 9 8 10 11 13 20 26 28 26 23 18 13 13 19 23 21 19 18 17 16 15 13 11 8 5 5 6 8 8 9 10 10 10 12 14 17 18 18 21 23 23 22 22 23 24 24 24 23 22 21 20 19 18 19 20 20 21 21 20 18 16 15 16
6 6 6 6 7 6 6 7 4 1 4 9 8 4 3 8 19 27 21 14 14 15 13 8 8 11 14 17 23 29 29 24 19 17 16 17 21 22 20 19 17 16 16 15 13 10 9 7 6 6 7 8 9 11 12 12 12 14 16 18 18 20 22 23 23 22 23 24 24 23 23 22 21 20 18 18 18 19 19 20 21 20 19 17 15 15
5 5 5 6 6 5 5 5 1 4 8 11 11 10 12 18 24 27 23 20 21 20 15 11 11 13 16 20 23 22 22 22 20 20 20 20 21 20 19 18 17 17 16 14 12 10 10 8 6 7 8 8 8 11 12 14 14 15 16 18 19 20 20 22 24 23 23 23 24 23 23 22 21 20 18 17 17 17 19 20 20 20 19 17 15 14
2 3 2 2 2 2 3 2 4 6 10 11 13 15 18 20 24 27 26 24 25 25 22 17 15 16 19 21 20 18 20 22 22 22 23 22 21 19 18 17 17 17 15 14 11 9 9 8 7 9 9 8 8 11 13 14 14 16 17 18 19 20 20 21 22 23 23 23 23 24 23 21 21 20 19 17 16 15 17 18 19 20 19 18 16 15
5 6 3 1 1 3 2 3 5 6 7 10 15 19 23 26 28 29 27 24 24 24 22 20 18 17 16 15 14 16 19 20 20 21 21 20 19 18 17 17 16 16 14 11 9 8 7 7 8 9 10 9 9 10 13 14 15 16 18 19 20 21 20 20 21 22 23 23 23 24 23 22 21 20 19 18 16 14 14 15 16 18 19 18 16 15
3 7 4 1 0 3 3 3 9 11 1 11 21 24 23 26 31 30 27 25 21 17 14 14 15 13 10 8 9 12 14 15 18 20 19 18 18 17 16 16 14 13 10 8 8 8 7 8 9 9 10 10 9 10 12 14 15 16 18 20 21 22 22 22 20 20 21 22 23 23 23 22 21 21 20 20 18 16 14 14 15 16 16 17 16 15
6 6 4 1 2 4 3 4 16 13 4 6 22 28 22 24 30 29 27 24 20 15 11 9 8 7 6 6 7 8 10 13 17 19 19 17 17 16 15 14 13 11 9 8 8 8 9 9 10 10 10 11 11 11 12 13 15 17 18 20 22 23 24 24 22 20 20 21 22 23 23 23 22 21 21 21 19 17 14 13 14 15 15 14 15 15
6 2 4 2 3 2 1 6 13 8 3 6 22 27 24 25 27 26 24 24 23 19 14 9 6 2 2 3 5 9 13 15 16 17 19 18 16 15 14 12 11 9 8 8 8 8 9 9 10 10 10 11 12 12 12 14 16 17 19 20 22 23 25 25 24 23 21 21 22 23 23 23 23 22 22 22 21 19 14 10 10 13 14 14 14 14
6 3 6 5 2 2 6 10 12 8 7 12 19 22 23 24 23 22 21 23 23 20 15 10 7 6 6 8 11 14 16 18 17 17 18 17 15 14 13 11 10 8 7 7 7 7 8 9 9 10 10 11 12 13 14 15 17 18 19 21 21 23 24 25 25 24 23 22 22 23 24 24 23 22 22 22 22 22 19 13 9 8 10 12 13 13
Wind_Direction
206 212 209 225 226 213 212 223 245 279 339 291 281 271 267 269 263 248 206 223 303 283 266 258 263 267 266 263 255 263 277 280 276 272 270 271 270 271 274 277 280 281 283 283 281 280 279 278 277 276 275 273 271 269 267 266 266 266 266 266 264 261 258 256 252 249 246 245 245 246 246 247 247 247 247 248 249 249 251 252 253 253 253 252 250 248
212 239 229 222 225 219 212 223 241 255 260 252 260 266 265 264 265 267 252 243 226 249 263 262 266 268 264 264 260 255 262 269 271 271 270 270 271 269 269 271 274 277 279 281 282 282 280 278 277 276 275 273 271 269 268 267 266 266 267 266 266 265 262 258 255 253 249 247 246 247 248 249 250 251 251 252 253 253 253 253 253 254 254 253 250 249
226 253 252 219 208 213 214 216 228 238 245 245 247 259 262 263 268 259 240 244 222 233 263 269 270 272 268 264 259 253 250 257 263 264 264 265 267 267 266 267 269 273 276 278 280 282 282 281 278 276 274 272 271 270 268 268 268 267 266 266 266 266 263 260 257 255 252 251 250 251 252 253 254 255 256 257 258 257 256 254 254 254 253 252 249 246
239 261 342 182 191 202 212 205 208 229 238 237 237 248 255 259 270 253 217 180 218 243 276 289 286 278 270 258 250 247 243 248 253 254 257 257 259 262 263 265 268 269 271 274 277 280 282 282 280 278 277 277 278 276 274 273 273 272 270 269 268 267 266 265 262 259 257 257 257 257 256 256 257 257 257 258 257 256 254 252 251 252 251 250 248 245
257 270 87 139 183 199 213 203 201 225 237 231 231 241 254 258 259 263 274 289 274 263 268 281 286 276 258 238 241 245 237 239 242 247 256 257 256 259 261 264 268 268 269 271 275 277 279 280 281 281 282 282 281 281 280 279 278 276 274 273 272 271 270 269 268 265 262 261 259 258 257 255 255 254 254 253 252 252 251 248 247 248 248 248 246 244
264 260 146 185 186 192 214 215 206 215 241 243 233 234 247 257 258 263 273 281 284 278 269 273 277 277 257 213 231 241 218 231 235 237 251 256 255 255 255 260 267 270 271 272 274 277 279 281 282 283 283 283 281 280 279 277 275 274 271 270 269 268 267 266 265 263 263 261 259 258 257 254 253 253 252 251 252 252 251 247 245 245 245 245 245 243
262 219 176 214 212 201 218 236 217 203 245 268 231 210 229 244 249 253 260 259 264 281 322 28 281 285 291 231 234 235 200 226 236 228 241 252 258 256 252 257 266 274 281 283 281 280 283 285 285 285 284 283 281 279 277 274 272 271 268 264 262 260 259 257 256 255 256 256 256 255 254 253 252 253 254 255 256 255 253 249 247 247 245 244 244 243
172 160 185 208 219 220 228 243 212 189 232 272 86 119 195 227 234 237 246 247 260 284 291 273 259 274 285 269 208 222 210 217 244 244 243 247 252 255 258 273 287 302 313 315 308 295 289 288 288 289 288 286 286 284 281 278 276 273 270 266 262 259 256 253 249 248 248 250 251 251 251 251 250 251 253 256 258 258 255 251 249 249 247 243 243 243
117 188 199 192 213 226 228 230 181 181 218 245 81 80 94 166 251 245 249 259 270 285 280 254 235 252 275 265 135 210 220 206 240 246 252 250 250 263 13 19 13 13 5 1 0 343 323 312 306 303 302 300 298 294 289 286 283 278 275 272 268 264 260 256 250 246 244 245 248 249 250 250 249 251 253 254 257 257 255 252 251 249 247 244 243 243
63 85 103 211 223 229 223 194 169 191 212 164 89 1 342 331 287 268 261 273 279 274 264 243 214 239 276 263 194 230 232 235 247 241 249 256 69 67 56 47 44 46 45 41 38 28 19 10 354 343 334 324 316 308 298 292 287 282 278 275 272 268 264 261 256 250 245 243 244 246 247 248 248 249 251 252 253 255 254 252 249 248 247 245 242 241
290 331 341 253 231 238 252 210 198 207 217 39 37 268 288 290 274 266 258 266 274 260 255 241 195 208 271 278 239 229 225 235 244 235 241 219 86 81 68 59 52 49 50 48 45 40 32 26 18 8 360 345 332 322 311 300 293 285 279 276 272 270 268 266 262 256 250 245 243 243 244 247 247 247 248 249 251 252 252 251 248 246 245 244 243 242
262 252 260 248 226 223 232 231 217 208 216 248 255 254 280 279 255 251 243 231 239 256 262 222 180 194 241 272 238 171 186 237 254 257 244 146 99 91 76 63 55 50 47 45 44 41 34 27 22 15 10 2 350 341 332 320 308 296 286 279 274 271 270 269 265 260 254 249 246 244 244 246 247 247 246 246 248 249 250 251 248 246 244 243 243 243
243 217 206 224 217 198 199 216 205 193 201 213 220 217 235 260 247 238 228 204 215 246 244 134 169 193 231 254 260 250 266 272 270 268 199 134 114 101 84 65 56 49 43 42 41 38 36 31 25 21 18 14 7 1 353 343 330 316 304 293 282 276 273 270 266 261 255 251 248 247 246 246 246 247 246 246 246 247 248 250 249 246 244 243 242 241
258 180 164 185 215 194 194 200 194 200 206 205 201 194 194 205 213 225 229 219 232 244 193 151 182 220 243 253 272 298 326 333 54 93 109 115 110 102 87 68 56 46 38 37 35 33 34 32 28 24 22 20 17 13 7 0 351 337 323 311 298 287 278 273 267 262 257 252 249 248 247 247 247 247 246 246 247 246 246 247 247 247 245 245 244 242
241 270 170 171 167 181 196 213 220 152 184 203 199 197 208 211 217 233 232 223 253 270 198 172 194 236 246 235 61 70 72 71 86 97 101 103 105 102 82 63 50 41 35 32 29 26 26 27 27 24 21 20 18 15 13 9 4 354 341 328 314 303 290 279 272 265 259 255 252 250 248 247 247 247 247 247 247 247 247 246 246 246 245 245 245 245
234 268 190 168 43 168 196 216 212 151 178 201 184 198 226 235 234 255 282 272 280 298 264 207 212 240 245 114 104 108 85 81 88 96 99 97 97 90 70 54 43 36 30 27 24 19 17 18 20 20 17 17 15 14 13 10 8 3 355 343 329 317 305 292 282 272 265 259 255 252 250 248 246 246 246 246 246 246 246 246 246 245 245 245 246 247
228 272 88 149 223 201 208 213 201 213 229 170 173 198 217 280 242 243 273 276 263 270 258 223 231 247 256 212 139 128 99 89 87 87 91 87 81 74 60 46 36 31 23 19 17 14 13 11 11 13 12 12 11 10 10 9 7 5 1 354 343 329 316 303 292 282 273 265 259 255 252 251 247 245 245 245 246 246 246 246 246 246 246 247 247 246
234 275 153 172 208 206 211 260 228 245 267 167 184 200 134 67 246 231 263 264 239 255 251 222 231 239 247 237 141 127 115 102 92 86 86 79 70 63 54 41 29 22 15 10 8 7 9 6 3 5 5 6 7 6 7 6 5 4 2 360 353 342 327 313 302 292 284 275 266 259 254 252 249 246 245 244 245 247 247 246 245 246 246 246 246 246
209 264 229 177 204 146 113 239 238 230 227 221 266 304 159 227 232 212 227 245 240 254 257 229 231 234 237 232 147 140 138 121 113 104 87 73 64 54 46 34 22 15 8 3 0 359 1 1 358 358 358 359 360 360 1 1 1 2 1 0 358 352 339 323 310 300 293 285 276 267 258 253 250 247 245 244 245 246 247 246 245 245 245 245 245 246
163 243 263 169 205 65 111 217 222 198 175 212 297 279 244 247 254 230 223 235 244 251 258 239 228 226 234 235 163 152 149 138 135 114 88 71 61 50 36 25 16 8 0 355 352 352 354 355 353 352 353 353 354 355 355 356 357 358 359 360 359 355 347 333 318 306 299 292 284 275 265 256 250 247 245 243 244 244 245 245 245 245 244 244 245 245
153 215 240 159 100 252 217 203 215 206 184 195 221 221 217 220 257 283 255 239 240 248 255 249 243 232 222 253 134 146 148 148 140 115 99 79 59 45 30 20 9 0 353 348 346 347 348 349 348 346 347 348 348 349 350 352 354 354 355 357 357 356 353 343 329 314 306 300 291 283 274 263 253 248 245 243 242 242 243 244 246 246 246 245 244 244
186 206 223 215 188 213 216 161 239 237 214 212 215 212 215 212 212 244 245 227 220 242 252 253 259 254 165 94 133 153 154 152 132 105 92 79 60 45 25 9 359 353 346 340 340 340 342 345 343 341 341 342 341 343 345 347 349 351 352 353 355 356 355 351 340 325 314 308 300 291 282 272 260 251 246 243 241 241 241 243 244 245 246 246 244 243
184 174 223 231 222 220 227 66 48 333 312 255 239 222 212 208 211 230 240 234 224 241 256 262 263 261 180 136 168 160 154 153 140 111 82 56 25 21 7 352 348 345 338 333 332 333 336 339 339 338 337 336 336 338 340 341 344 348 349 350 352 353 354 354 349 337 323 314 307 298 290 279 267 256 248 244 242 241 241 242 244 245 245 245 245 244
155 166 230 239 244 251 285 248 158 24 351 254 244 210 193 206 213 227 247 260 254 244 247 254 254 251 188 150 169 152 152 162 186 222 270 296 300 326 333 334 337 335 331 327 325 326 329 333 336 336 335 335 334 334 336 338 340 343 346 348 349 350 352 354 353 347 335 322 314 304 294 284 272 261 253 247 244 243 242 243 244 244 244 245 245 244
164 197 217 236 248 236 234 235 221 189 203 231 228 200 196 204 202 209 267 262 249 235 232 249 254 249 201 135 146 158 171 198 231 250 266 264 259 307 321 326 330 330 327 321 319 322 324 328 332 333 334 335 333 331 333 335 337 339 343 346 347 348 350 351 354 353 347 334 323 311 299 288 275 264 257 252 249 246 245 244 244 243 243 244 244 244
192 215 201 209 236 232 222 218 217 213 207 210 219 213 209 197 191 192 202 221 234 227 222 236 249 257 257 244 225 203 218 248 254 265 275 259 241 305 316 321 325 325 322 314 314 319 322 325 328 328 329 332 331 329 329 331 334 335 338 342 345 347 348 349 352 354 353 346 334 320 306 294 281 268 259 255 252 250 248 246 245 244 243 244 244 244
214 235 213 208 223 233 234 223 215 211 198 191 206 211 210 203 198 200 213 227 232 232 233 233 237 261 261 255 255 254 258 267 270 277 278 264 261 304 309 316 319 317 312 308 309 314 318 321 322 323 326 328 329 328 327 327 329 331 334 339 342 345 347 348 350 353 355 353 345 331 315 302 290 278 266 258 252 249 248 247 246 245 244 245 245 245
239 240 231 231 234 237 245 246 237 224 208 207 210 209 211 211 206 204 218 227 228 237 244 218 200 238 254 256 260 258 255 261 263 267 268 263 272 294 302 310 310 305 302 303 305 311 316 318 319 321 325 326 326 326 326 326 326 329 334 337 340 344 345 347 349 350 352 354 352 342 326 311 298 287 276 266 256 248 245 245 245 245 245 244 244 245
250 256 242 249 257 259 264 266 263 255 234 222 223 218 215 213 208 207 218 224 224 231 242 218 209 231 250 256 254 248 245 251 257 261 265 262 267 283 296 301 296 294 297 298 302 309 312 314 318 320 322 323 325 328 330 332 332 332 334 337 340 342 343 345 348 348 349 353 354 350 339 323 308 295 285 274 264 254 247 245 244 244 243 241 242 244
216 270 270 268 276 275 272 273 271 267 257 243 238 235 232 224 213 211 217 221 221 225 236 240 238 241 246 250 255 255 246 244 252 262 263 260 263 275 287 284 278 283 291 295 301 306 307 312 318 319 320 324 330 335 339 341 341 338 337 338 340 341 342 343 345 347 347 350 352 353 349 337 320 305 292 281 271 260 250 246 244 244 242 240 240 241
211 258 276 275 277 272 269 269 266 264 263 256 248 243 243 242 227 216 220 225 225 227 232 238 244 246 246 252 261 262 247 236 254 260 257 260 263 268 271 265 265 277 285 291 299 304 307 312 318 320 325 332 338 342 344 344 345 343 340 339 339 340 342 342 343 345 346 346 349 352 353 349 336 318 301 288 277 265 255 248 244 243 243 241 239 238
218 253 268 268 269 266 261 262 265 269 269 263 254 245 241 244 239 225 219 222 223 225 231 236 243 249 248 254 260 255 229 236 257 256 255 259 255 248 251 250 260 275 282 288 297 302 303 308 314 320 328 336 340 343 344 344 345 344 342 341 339 338 339 340 341 343 343 342 343 347 352 353 349 337 317 298 284 272 260 252 247 244 244 243 241 238
218 246 259 258 266 271 261 259 267 271 266 260 253 242 236 238 239 234 225 224 225 227 235 239 242 247 247 251 257 251 232 241 251 251 251 251 240 235 240 245 256 270 277 284 291 292 288 294 305 315 325 333 337 342 344 344 345 346 344 343 341 338 337 336 337 339 339 339 339 342 348 351 353 352 340 318 297 281 268 258 252 249 247 245 243 241
224 232 246 248 257 268 266 263 264 259 256 259 238 220 230 234 237 239 237 231 227 226 232 239 245 250 251 252 254 254 251 251 251 247 245 246 245 240 238 243 253 264 271 275 276 270 271 281 296 310 322 330 336 341 343 344 346 348 347 345 343 340 337 335 333 333 334 335 336 340 343 347 351 356 354 343 321 297 279 266 257 251 249 248 245 243
228 230 237 241 244 255 261 261 256 251 254 257 214 212 228 235 237 242 243 237 232 229 229 237 245 249 250 251 253 257 260 257 248 245 250 254 251 242 234 241 252 260 261 257 251 251 260 275 291 307 321 331 338 341 341 342 346 349 349 347 345 342 339 337 333 329 329 331 334 338 341 343 346 352 357 356 345 321 295 277 262 252 248 248 248 247
226 229 234 239 240 247 249 245 249 263 302 274 234 223 228 232 234 240 244 241 237 233 232 235 239 243 247 252 256 259 259 253 244 256 261 259 252 242 233 243 255 257 248 237 235 240 251 270 286 302 321 333 339 339 338 340 343 346 348 347 346 343 339 338 336 331 328 328 331 337 341 341 342 347 354 358 355 345 320 293 273 259 249 245 247 250
224 228 234 236 232 236 245 246 255 272 276 263 248 226 221 226 227 230 244 245 231 227 231 231 236 243 246 251 256 257 255 239 249 264 260 254 250 245 243 251 257 250 231 224 230 236 244 259 275 295 318 332 339 337 336 339 339 341 344 346 346 344 340 337 337 335 332 329 330 335 339 341 342 343 349 355 357 355 344 318 291 273 260 250 246 247
220 221 223 228 226 224 240 252 258 262 261 255 242 220 214 225 228 223 238 246 225 220 226 225 232 240 241 249 253 248 234 224 249 263 258 248 245 246 246 248 243 224 212 219 227 232 238 246 260 283 311 331 337 335 334 338 338 337 339 342 345 345 342 339 337 337 337 334 332 333 335 339 342 343 345 351 355 356 351 340 316 290 273 262 252 245
221 221 220 227 232 227 236 249 249 254 266 268 257 237 220 225 231 231 241 243 218 214 223 223 228 235 237 244 243 218 194 233 244 254 254 246 241 244 239 227 213 201 206 218 223 227 233 239 253 276 306 328 333 333 335 338 340 338 336 336 341 345 343 340 338 338 338 337 334 331 331 334 340 343 343 346 352 355 353 346 335 312 288 274 263 252
227 229 227 231 233 231 238 247 250 261 272 272 274 264 234 225 227 230 240 237 191 203 226 227 225 234 236 233 220 189 198 227 236 248 252 248 244 240 224 203 193 195 205 213 217 224 229 237 257 279 305 327 336 339 337 337 340 341 336 334 336 341 343 341 339 337 336 336 335 332 329 330 335 341 343 344 348 352 353 349 341 327 304 284 272 261
219 222 228 234 233 235 241 247 253 266 269 269 270 262 238 224 226 230 238 234 166 203 228 233 229 235 235 215 189 196 222 230 237 248 256 254 236 217 196 185 188 197 206 212 217 223 229 239 263 286 307 328 343 345 341 338 337 340 340 336 333 337 342 342 338 336 335 335 334 333 331 329 331 336 341 344 345 347 350 350 345 335 317 295 278 267
210 209 222 225 229 237 242 252 264 262 264 288 281 269 240 213 221 240 247 243 218 214 227 235 234 237 229 195 196 222 232 234 237 241 251 245 214 191 179 182 191 198 205 212 217 222 229 239 263 288 307 327 341 342 343 342 335 334 339 340 334 334 338 339 337 335 334 333 333 334 333 331 329 332 336 341 343 343 345 348 347 340 327 305 284 271
199 205 224 220 224 240 238 242 258 255 315 341 318 299 240 216 314 347 312 265 250 246 248 253 245 235 219 203 216 229 232 233 231 226 227 215 192 182 183 189 194 200 206 211 219 225 232 244 261 285 308 326 335 336 340 344 338 334 335 338 338 336 335 336 336 334 332 332 333 334 334 333 330 329 332 337 339 340 342 344 346 344 335 317 293 274
197 216 240 229 222 235 238 239 244 251 340 338 331 328 325 335 355 1 350 320 306 296 277 264 258 250 236 223 226 231 231 228 219 208 201 190 181 183 191 195 200 207 208 213 223 231 244 259 268 286 308 325 332 333 337 340 340 338 334 335 339 339 334 333 334 332 330 330 332 333 334 336 334 330 329 332 334 336 337 340 343 343 339 329 307 283
194 224 249 247 236 233 247 260 308 30 7 6 19 17 353 346 353 358 352 339 328 316 300 282 276 277 262 240 233 234 231 222 214 205 197 186 181 186 194 198 203 208 211 218 226 235 252 269 284 296 306 321 328 328 334 340 341 340 336 335 337 339 336 334 332 331 329 329 332 334 335 337 337 333 330 329 331 333 333 335 339 342 340 335 321 297
28 351 304 262 254 257 281 335 43 16 354 11 31 22 6 358 355 356 353 341 329 325 318 298 278 277 268 249 240 241 235 223 214 207 199 190 185 188 195 200 204 208 214 220 228 239 257 274 291 296 300 314 322 321 327 335 339 340 340 339 337 338 339 337 332 330 330 329 331 334 336 337 339 337 333 330 329 330 332 333 335 339 339 336 329 313
46 11 349 194 224 282 260 95 56 346 343 29 31 14 3 358 353 354 352 340 331 332 326 306 284 274 267 254 246 246 238 222 208 199 191 185 184 189 195 199 203 208 214 220 231 245 261 276 285 289 296 310 321 321 322 327 334 338 339 339 339 338 340 340 335 331 331 331 331 334 336 338 341 341 338 334 330 328 328 330 332 334 337 335 329 322
35 1 358 132 250 287 192 96 357 323 275 71 35 15 4 353 348 348 347 341 337 341 336 315 295 279 264 258 256 247 231 209 194 183 175 176 180 183 187 193 199 206 211 219 236 251 266 275 276 282 295 309 321 325 323 325 330 335 337 336 336 337 338 340 339 335 332 331 332 334 337 339 342 344 343 339 337 333 328 326 328 330 334 333 328 322
320 338 359 46 281 283 209 32 356 337 185 80 15 7 2 351 345 344 344 344 345 348 350 340 318 291 267 259 252 226 196 182 179 175 169 168 169 171 177 188 197 205 213 227 245 259 267 270 273 283 298 311 322 327 327 327 329 334 337 336 334 334 334 336 339 339 335 333 333 334 337 340 342 345 346 344 341 338 333 329 328 328 329 329 326 319
329 340 348 302 247 268 4 15 360 344 233 326 348 352 350 345 344 345 347 351 352 352 356 4 4 337 245 205 178 167 160 154 157 165 162 154 154 163 175 186 197 204 217 233 247 258 264 270 282 296 306 314 322 328 329 328 330 335 338 337 336 334 333 333 335 337 336 336 336 336 337 340 341 344 346 345 342 339 336 328 324 325 327 325 321 315
10 17 343 322 268 316 357 3 355 332 293 308 327 337 342 343 346 350 353 353 352 354 3 17 38 68 99 124 134 140 139 135 138 149 149 142 148 164 171 179 189 199 213 231 244 256 267 280 293 303 310 317 323 328 328 327 331 336 337 338 338 336 334 333 334 335 336 336 337 337 337 338 340 341 342 344 344 343 339 332 319 314 321 325 320 313
Height
1497 1496 1494 1491 1489 1489 1490 1489 1488 1488 1492 1493 1493 1492 1490 1488 1486 1486 1489 1489 1491 1490 1483 1480 1477 1474 1474 1475 1475 1477 1475 1472 1472 1473 1473 1472 1472 1472 1471 1471 1471 1471 1471 1472 1473 1473 1474 1473 1474 1474 1474 1474 1473 1473 1474 1474 1474 1474 1475 1475 1475 1477 1479 1480 1480 1481 1482 1482 1482 1483 1483 1483 1484 1485 1486 1487 1488 1490 1492 1492 1494 1496 1498 1499 1500 1500
1498 1495 1490 1488 1489 1489 1490 1491 1491 1492 1494 1495 1494 1492 1490 1489 1487 1487 1489 1488 1490 1491 1483 1479 1478 1473 1473 1473 1473 1475 1474 1470 1468 1470 1470 1469 1470 1469 1469 1469 1468 1469 1469 1469 1469 1469 1470 1469 1470 1470 1469 1469 1469 1468 1470 1470 1470 1471 1471 1471 1471 1473 1474 1474 1475 1476 1476 1476 1477 1478 1477 1478 1479 1480 1481 1482 1483 1486 1487 1488 1490 1492 1493 1494 1495 1495
1496 1491 1486 1488 1490 1491 1491 1492 1493 1494 1495 1494 1493 1492 1490 1487 1486 1487 1488 1488 1489 1489 1481 1478 1478 1472 1471 1472 1470 1471 1470 1466 1465 1466 1466 1466 1466 1466 1466 1466 1466 1466 1466 1465 1465 1464 1464 1464 1464 1464 1464 1464 1464 1464 1465 1465 1465 1466 1466 1466 1467 1468 1468 1469 1470 1470 1471 1471 1473 1474 1474 1474 1475 1476 1476 1477 1478 1480 1482 1484 1485 1487 1488 1488 1489 1490
1489 1485 1486 1489 1490 1491 1492 1493 1495 1495 1494 1493 1491 1491 1488 1485 1488 1488 1487 1488 1489 1487 1481 1479 1478 1470 1467 1468 1464 1463 1463 1461 1462 1461 1461 1462 1462 1462 1462 1463 1463 1463 1462 1461 1461 1460 1460 1459 1459 1459 1459 1459 1460 1460 1459 1460 1460 1461 1461 1461 1462 1462 1463 1463 1464 1465 1467 1468 1469 1469 1470 1470 1470 1470 1471 1472 1472 1473 1476 1477 1478 1480 1481 1482 1484 1486
1487 1485 1489 1490 1490 1491 1492 1493 1494 1494 1491 1490 1490 1489 1487 1486 1491 1490 1487 1488 1487 1484 1481 1481 1479 1462 1454 1460 1456 1454 1457 1456 1457 1458 1457 1458 1458 1459 1459 1458 1459 1458 1458 1457 1456 1456 1456 1455 1455 1455 1455 1455 1455 1455 1455 1455 1455 1454 1454 1455 1455 1456 1456 1457 1458 1460 1462 1463 1463 1464 1464 1464 1464 1464 1464 1465 1464 1465 1468 1469 1470 1472 1475 1476 1478 1480
1488 1487 1489 1490 1491 1491 1491 1491 1491 1491 1489 1487 1486 1487 1487 1488 1490 1490 1489 1490 1489 1485 1478 1480 1479 1453 1439 1451 1452 1450 1454 1452 1453 1456 1454 1454 1455 1456 1455 1454 1454 1454 1453 1453 1452 1453 1453 1452 1452 1451 1451 1451 1450 1450 1450 1449 1449 1449 1448 1449 1449 1450 1450 1451 1453 1455 1456 1457 1457 1458 1457 1457 1457 1457 1456 1457 1459 1460 1461 1462 1464 1467 1469 1470 1472 1475
1487 1488 1489 1489 1490 1490 1491 1489 1487 1489 1489 1486 1483 1483 1486 1487 1489 1490 1490 1490 1489 1483 1476 1480 1483 1460 1440 1446 1448 1448 1452 1450 1451 1453 1452 1453 1452 1452 1452 1451 1451 1451 1451 1452 1451 1451 1450 1449 1449 1448 1447 1447 1446 1445 1445 1445 1444 1444 1444 1444 1444 1444 1444 1445 1447 1449 1450 1450 1450 1451 1451 1451 1451 1450 1450 1452 1455 1456 1457 1458 1459 1462 1463 1464 1466 1470
1485 1488 1489 1489 1489 1489 1489 1485 1483 1487 1488 1485 1482 1484 1486 1485 1488 1490 1489 1488 1485 1481 1478 1478 1484 1475 1453 1445 1445 1445 1449 1451 1450 1451 1450 1451 1450 1449 1450 1450 1450 1450 1450 1450 1449 1448 1448 1447 1446 1445 1445 1443 1443 1441 1441 1440 1440 1440 1439 1439 1439 1439 1439 1439 1441 1442 1443 1443 1443 1444 1444 1444 1444 1445 1446 1448 1450 1451 1453 1454 1455 1456 1458 1459 1461 1464
1485 1487 1487 1488 1488 1486 1483 1481 1482 1486 1487 1484 1483 1486 1487 1486 1488 1488 1487 1488 1484 1486 1486 1477 1477 1478 1458 1444 1446 1445 1447 1451 1449 1448 1448 1446 1447 1448 1449 1450 1449 1449 1449 1448 1448 1447 1447 1446 1445 1444 1443 1442 1440 1439 1438 1437 1436 1436 1436 1435 1435 1435 1435 1435 1436 1436 1436 1437 1438 1438 1438 1438 1439 1440 1442 1444 1445 1446 1447 1448 1450 1451 1452 1453 1455 1458
1486 1486 1487 1487 1485 1481 1479 1481 1483 1484 1485 1483 1485 1487 1486 1487 1487 1488 1489 1488 1487 1491 1487 1474 1474 1478 1458 1440 1444 1446 1445 1448 1445 1443 1444 1443 1446 1448 1449 1450 1449 1449 1449 1448 1447 1447 1446 1445 1444 1443 1442 1440 1438 1437 1436 1435 1434 1433 1432 1431 1431 1431 1431 1431 1432 1432 1431 1431 1432 1432 1432 1433 1434 1435 1437 1439 1440 1440 1441 1442 1444 1446 1447 1448 1449 1451
1486 1487 1488 1486 1483 1480 1480 1482 1482 1484 1484 1483 1486 1486 1486 1487 1485 1487 1487 1486 1492 1490 1477 1468 1472 1481 1468 1441 1436 1441 1440 1441 1440 1440 1441 1443 1446 1448 1449 1450 1450 1449 1448 1447 1447 1446 1445 1444 1443 1442 1440 1439 1437 1435 1434 1432 1431 1430 1429 1428 1427 1427 1427 1427 1428 1427 1427 1427 1426 1426 1426 1427 1429 1431 1432 1433 1434 1435 1436 1436 1438 1440 1441 1443 1444 1445
1487 1488 1485 1482 1480 1480 1482 1483 1482 1484 1484 1485 1487 1487 1490 1488 1482 1487 1487 1488 1499 1484 1463 1462 1467 1478 1474 1444 1429 1435 1436 1436 1438 1439 1440 1443 1446 1448 1449 1450 1449 1449 1448 1447 1446 1444 1443 1442 1441 1440 1439 1437 1435 1433 1432 1430 1429 1427 1426 1425 1424 1424 1424 1423 1423 1423 1422 1422 1421 1421 1421 1422 1423 1425 1426 1426 1427 1429 1430 1431 1433 1435 1436 1438 1439 1441
1480 1481 1480 1479 1479 1479 1481 1482 1483 1484 1484 1486 1487 1489 1497 1491 1486 1491 1483 1483 1491 1473 1458 1463 1463 1470 1467 1439 1426 1432 1435 1435 1435 1437 1439 1442 1446 1448 1449 1449 1448 1448 1447 1446 1445 1444 1442 1440 1439 1439 1437 1435 1433 1432 1430 1428 1427 1425 1423 1422 1420 1420 1420 1419 1418 1418 1418 1417 1417 1417 1416 1417 1418 1419 1420 1421 1422 1423 1424 1426 1428 1429 1431 1432 1433 1435
1473 1472 1478 1480 1476 1476 1478 1476 1478 1481 1481 1484 1484 1487 1492 1488 1495 1499 1479 1472 1474 1459 1457 1463 1461 1464 1454 1434 1431 1434 1437 1437 1435 1438 1440 1442 1446 1448 1448 1449 1448 1448 1447 1446 1444 1443 1442 1440 1439 1439 1437 1435 1433 1431 1430 1427 1425 1423 1421 1419 1417 1416 1416 1415 1414 1413 1413 1412 1412 1413 1412 1412 1413 1413 1415 1416 1417 1418 1419 1420 1422 1423 1425 1426 1427 1429
1475 1467 1470 1474 1471 1471 1473 1470 1470 1472 1475 1478 1478 1482 1482 1475 1481 1482 1466 1464 1462 1450 1453 1462 1465 1462 1442 1432 1439 1439 1439 1441 1438 1440 1442 1443 1446 1447 1447 1448 1447 1447 1446 1445 1444 1443 1442 1440 1440 1439 1437 1435 1433 1431 1429 1426 1424 1421 1419 1417 1414 1413 1413 1412 1410 1409 1408 1408 1408 1408 1408 1408 1408 1408 1409 1410 1411 1413 1414 1415 1416 1418 1419 1421 1422 1425
1486 1472 1466 1471 1471 1470 1472 1470 1470 1471 1473 1475 1476 1481 1480 1468 1467 1467 1461 1462 1464 1460 1458 1457 1457 1447 1431 1432 1440 1440 1441 1442 1441 1442 1443 1445 1446 1446 1447 1446 1446 1446 1445 1445 1444 1443 1442 1441 1440 1438 1436 1435 1433 1431 1428 1425 1422 1420 1417 1415 1413 1411 1409 1408 1407 1405 1404 1404 1403 1403 1403 1403 1403 1404 1404 1405 1406 1407 1409 1411 1411 1412 1414 1416 1418 1420
1481 1472 1470 1473 1472 1471 1472 1470 1471 1472 1469 1470 1477 1479 1473 1468 1469 1472 1469 1464 1468 1472 1459 1449 1448 1440 1432 1434 1435 1437 1442 1442 1442 1443 1443 1445 1445 1444 1446 1446 1446 1446 1445 1445 1444 1443 1442 1440 1439 1437 1436 1434 1432 1430 1428 1424 1422 1419 1416 1414 1411 1409 1407 1406 1404 1402 1401 1400 1399 1399 1399 1399 1399 1399 1399 1399 1401 1402 1404 1406 1406 1407 1409 1411 1413 1415
1470 1467 1468 1471 1470 1470 1472 1471 1471 1471 1468 1468 1475 1473 1468 1472 1474 1475 1476 1468 1470 1472 1453 1440 1444 1440 1435 1433 1431 1436 1441 1441 1443 1443 1443 1444 1443 1444 1445 1445 1446 1445 1445 1444 1443 1442 1441 1439 1438 1436 1435 1433 1431 1429 1426 1423 1421 1419 1416 1413 1410 1407 1405 1403 1401 1399 1398 1397 1396 1395 1394 1394 1394 1394 1394 1394 1396 1398 1399 1401 1401 1403 1404 1405 1407 1410
1472 1469 1466 1469 1470 1468 1471 1473 1470 1469 1469 1468 1470 1468 1467 1473 1471 1470 1477 1473 1471 1469 1452 1439 1439 1435 1429 1424 1427 1435 1438 1440 1443 1442 1443 1443 1442 1444 1444 1445 1445 1444 1444 1443 1441 1441 1439 1438 1437 1434 1432 1430 1427 1425 1423 1421 1420 1418 1416 1413 1410 1407 1404 1401 1399 1397 1395 1394 1392 1391 1390 1390 1389 1389 1389 1390 1391 1393 1393 1394 1396 1398 1399 1400 1402 1405
1473 1472 1467 1469 1471 1470 1470 1472 1466 1465 1469 1471 1471 1469 1467 1469 1465 1461 1464 1463 1462 1461 1452 1442 1437 1431 1423 1417 1422 1432 1435 1439 1441 1441 1442 1442 1442 1444 1443 1444 1444 1443 1443 1441 1440 1439 1437 1436 1435 1432 1431 1428 1426 1424 1422 1420 1419 1416 1415 1412 1409 1406 1403 1400 1398 1395 1393 1391 1390 1388 1387 1386 1385 1385 1385 1385 1386 1387 1388 1389 1391 1392 1394 1395 1398 1400
1473 1474 1471 1470 1473 1473 1467 1464 1460 1458 1463 1467 1469 1470 1468 1468 1467 1465 1463 1457 1457 1458 1452 1447 1439 1425 1420 1422 1425 1430 1434 1437 1439 1440 1442 1442 1442 1443 1443 1443 1443 1442 1442 1440 1439 1438 1435 1434 1433 1431 1430 1427 1426 1424 1422 1420 1418 1415 1413 1409 1407 1404 1401 1398 1396 1393 1390 1388 1387 1385 1384 1383 1382 1381 1381 1381 1381 1382 1383 1384 1386 1387 1389 1391 1393 1395
1471 1473 1471 1468 1470 1468 1460 1458 1460 1458 1458 1460 1461 1462 1463 1463 1465 1470 1467 1456 1455 1457 1451 1451 1446 1427 1421 1429 1429 1430 1435 1437 1438 1439 1440 1441 1442 1442 1442 1442 1441 1441 1440 1439 1438 1437 1435 1433 1432 1430 1429 1427 1425 1423 1421 1419 1416 1413 1411 1408 1406 1403 1400 1397 1394 1391 1388 1386 1384 1382 1381 1380 1379 1378 1377 1377 1377 1377 1378 1379 1381 1383 1385 1386 1388 1390
1466 1469 1469 1465 1462 1460 1458 1462 1465 1463 1461 1460 1458 1456 1457 1459 1459 1463 1462 1452 1453 1456 1450 1452 1450 1432 1425 1430 1430 1431 1435 1436 1438 1439 1439 1441 1441 1441 1441 1440 1440 1439 1438 1437 1436 1435 1433 1432 1430 1429 1427 1426 1424 1421 1419 1417 1414 1412 1410 1407 1405 1403 1400 1397 1394 1390 1387 1384 1382 1380 1378 1377 1376 1375 1374 1373 1373 1373 1373 1375 1376 1378 1380 1382 1383 1385
1465 1468 1467 1462 1459 1459 1460 1462 1464 1465 1466 1462 1458 1458 1458 1458 1456 1456 1456 1454 1454 1454 1449 1450 1446 1430 1426 1430 1430 1432 1435 1436 1438 1438 1438 1439 1439 1439 1439 1438 1438 1437 1436 1436 1434 1433 1432 1431 1429 1428 1426 1424 1422 1419 1417 1415 1413 1411 1409 1406 1404 1402 1400 1397 1393 1389 1385 1382 1380 1378 1376 1375 1374 1373 1371 1370 1369 1369 1369 1371 1372 1373 1375 1377 1379 1381
1463 1463 1461 1463 1464 1464 1465 1464 1463 1465 1466 1461 1456 1456 1457 1457 1458 1460 1461 1462 1460 1454 1451 1451 1441 1427 1426 1431 1432 1433 1435 1436 1436 1436 1436 1436 1436 1437 1437 1435 1435 1435 1434 1434 1432 1431 1430 1429 1427 1426 1423 1422 1419 1417 1415 1413 1412 1410 1408 1405 1403 1401 1399 1396 1392 1389 1384 1381 1378 1376 1374 1373 1371 1370 1369 1368 1367 1366 1366 1367 1367 1369 1370 1372 1374 1376
1455 1452 1453 1460 1461 1460 1460 1458 1454 1451 1454 1457 1455 1454 1455 1456 1457 1458 1459 1460 1457 1451 1449 1447 1438 1429 1427 1428 1430 1432 1433 1433 1433 1433 1433 1433 1433 1434 1434 1434 1433 1433 1432 1431 1430 1429 1428 1426 1425 1423 1421 1420 1418 1416 1414 1412 1410 1408 1406 1404 1402 1400 1397 1395 1392 1388 1384 1380 1377 1374 1373 1371 1369 1368 1366 1365 1364 1363 1363 1363 1364 1365 1366 1368 1370 1372
1450 1446 1444 1447 1444 1440 1440 1438 1437 1437 1442 1449 1451 1449 1450 1451 1452 1453 1452 1450 1447 1445 1442 1438 1438 1437 1430 1426 1428 1429 1430 1429 1429 1429 1430 1431 1431 1432 1432 1433 1432 1432 1431 1430 1429 1427 1426 1425 1423 1421 1420 1418 1417 1415 1413 1411 1409 1407 1405 1403 1401 1398 1396 1393 1391 1387 1384 1380 1376 1373 1371 1369 1368 1366 1364 1363 1361 1361 1360 1360 1360 1361 1362 1364 1366 1368
1450 1447 1441 1440 1436 1432 1431 1430 1430 1432 1435 1439 1440 1441 1442 1444 1446 1449 1448 1441 1440 1443 1438 1432 1438 1438 1428 1425 1428 1427 1426 1426 1425 1425 1427 1428 1429 1429 1430 1431 1430 1430 1429 1428 1427 1426 1424 1423 1422 1420 1418 1417 1416 1414 1412 1410 1407 1405 1403 1401 1399 1397 1394 1392 1389 1387 1383 1380 1376 1373 1370 1368 1366 1365 1363 1361 1359 1358 1357 1357 1357 1358 1359 1360 1362 1363
1450 1448 1443 1442 1440 1436 1435 1433 1431 1432 1432 1432 1433 1433 1434 1435 1438 1442 1442 1438 1438 1440 1435 1429 1432 1430 1425 1424 1423 1421 1422 1421 1420 1422 1424 1425 1427 1427 1428 1429 1428 1428 1427 1426 1425 1424 1423 1422 1420 1418 1417 1416 1415 1412 1410 1408 1405 1403 1401 1399 1397 1395 1392 1390 1388 1385 1383 1380 1376 1373 1369 1366 1365 1363 1362 1360 1358 1356 1355 1354 1354 1355 1355 1356 1358 1359
1450 1448 1443 1443 1444 1440 1438 1437 1435 1435 1433 1431 1431 1429 1428 1428 1430 1433 1435 1434 1434 1434 1431 1429 1427 1423 1421 1418 1414 1415 1418 1417 1417 1420 1422 1422 1423 1424 1426 1426 1426 1425 1424 1423 1423 1421 1421 1419 1418 1418 1417 1415 1413 1410 1407 1405 1403 1401 1399 1397 1396 1393 1390 1388 1386 1384 1382 1379 1376 1373 1369 1366 1363 1362 1360 1359 1357 1355 1353 1352 1352 1352 1352 1353 1354 1356
1447 1446 1441 1442 1444 1440 1437 1436 1434 1432 1431 1430 1430 1428 1426 1426 1427 1430 1431 1431 1432 1432 1429 1427 1423 1418 1416 1413 1411 1413 1415 1415 1417 1418 1418 1419 1420 1421 1423 1423 1423 1422 1421 1421 1420 1419 1418 1417 1415 1415 1413 1412 1409 1407 1405 1404 1402 1400 1398 1396 1393 1390 1388 1386 1385 1383 1381 1378 1376 1373 1369 1366 1362 1360 1358 1357 1356 1354 1352 1351 1349 1349 1350 1350 1351 1352
1443 1442 1440 1442 1443 1438 1434 1434 1431 1429 1428 1427 1426 1426 1427 1427 1426 1427 1427 1426 1426 1427 1425 1424 1421 1416 1413 1411 1409 1410 1413 1414 1414 1413 1414 1415 1416 1418 1420 1420 1420 1419 1418 1418 1417 1416 1415 1414 1413 1412 1410 1408 1407 1405 1404 1403 1401 1398 1396 1394 1391 1388 1386 1384 1383 1382 1380 1378 1375 1372 1369 1366 1362 1359 1357 1355 1354 1353 1351 1350 1348 1347 1347 1347 1348 1350
1438 1440 1439 1440 1440 1435 1431 1430 1429 1428 1428 1423 1419 1420 1422 1422 1421 1419 1418 1417 1418 1419 1419 1418 1414 1409 1408 1407 1406 1407 1409 1409 1407 1408 1410 1412 1414 1416 1416 1416 1416 1415 1415 1415 1414 1414 1413 1412 1411 1409 1408 1407 1405 1404 1403 1401 1399 1396 1394 1392 1389 1386 1384 1383 1382 1381 1379 1377 1375 1371 1369 1366 1362 1358 1355 1353 1352 1351 1350 1349 1347 1346 1345 1345 1346 1347
1435 1437 1437 1436 1437 1434 1429 1428 1429 1429 1423 1414 1411 1413 1413 1413 1413 1411 1410 1410 1410 1410 1410 1407 1405 1404 1405 1404 1402 1402 1402 1402 1403 1405 1407 1409 1411 1412 1412 1412 1412 1411 1411 1412 1412 1411 1411 1409 1409 1408 1407 1406 1404 1403 1401 1400 1397 1395 1392 1390 1388 1385 1383 1382 1381 1380 1378 1376 1374 1371 1368 1366 1362 1359 1355 1352 1351 1349 1348 1347 1346 1345 1344 1344 1344 1344
1431 1433 1432 1432 1433 1430 1427 1428 1426 1418 1409 1405 1405 1407 1407 1406 1406 1406 1404 1402 1401 1403 1403 1402 1402 1402 1401 1400 1398 1397 1397 1399 1402 1403 1403 1405 1406 1407 1408 1408 1408 1407 1408 1409 1409 1409 1408 1407 1407 1406 1405 1404 1403 1401 1399 1398 1395 1393 1391 1389 1386 1384 1382 1381 1380 1379 1377 1375 1373 1370 1367 1365 1362 1359 1355 1351 1349 1347 1347 1346 1345 1344 1343 1342 1342 1341
1425 1427 1426 1426 1427 1426 1427 1426 1417 1405 1403 1404 1402 1400 1401 1402 1402 1402 1400 1396 1395 1398 1398 1398 1397 1397 1396 1396 1395 1395 1395 1397 1399 1398 1398 1399 1400 1401 1404 1403 1403 1404 1405 1405 1406 1406 1405 1405 1405 1404 1404 1402 1401 1400 1398 1396 1394 1391 1389 1387 1385 1384 1382 1380 1379 1377 1376 1374 1372 1369 1366 1363 1361 1358 1355 1351 1348 1346 1345 1344 1343 1342 1341 1340 1339 1339
1419 1420 1421 1422 1421 1422 1424 1419 1409 1404 1405 1405 1401 1398 1398 1396 1396 1398 1396 1390 1389 1392 1392 1392 1393 1393 1393 1393 1391 1392 1393 1396 1397 1393 1391 1393 1394 1396 1399 1399 1399 1401 1401 1402 1403 1403 1403 1403 1403 1402 1402 1401 1399 1398 1396 1395 1392 1390 1388 1386 1385 1383 1381 1380 1378 1376 1375 1373 1370 1368 1366 1363 1360 1357 1354 1351 1347 1344 1343 1341 1341 1341 1340 1338 1338 1337
1412 1413 1416 1418 1415 1414 1417 1415 1410 1408 1404 1398 1395 1394 1393 1391 1390 1392 1389 1382 1381 1384 1386 1387 1389 1389 1389 1389 1387 1389 1392 1394 1393 1388 1385 1387 1389 1391 1393 1394 1394 1396 1398 1399 1400 1400 1400 1400 1400 1400 1400 1399 1398 1396 1395 1393 1391 1389 1387 1385 1384 1382 1380 1378 1377 1375 1374 1372 1369 1368 1365 1362 1359 1356 1353 1350 1346 1343 1341 1339 1338 1338 1338 1337 1336 1335
1408 1407 1408 1411 1411 1410 1413 1413 1410 1405 1397 1391 1389 1387 1388 1388 1387 1388 1385 1375 1373 1379 1381 1382 1384 1384 1383 1382 1383 1386 1390 1392 1388 1382 1379 1382 1385 1386 1387 1388 1390 1393 1395 1396 1397 1398 1398 1398 1398 1398 1397 1397 1396 1395 1393 1392 1390 1388 1386 1384 1383 1381 1379 1377 1375 1374 1372 1371 1369 1367 1365 1362 1358 1355 1352 1349 1346 1343 1340 1337 1336 1335 1335 1335 1335 1334
1408 1407 1406 1407 1407 1406 1409 1408 1404 1399 1393 1389 1387 1385 1384 1384 1383 1385 1381 1371 1370 1377 1377 1377 1378 1377 1376 1377 1379 1383 1385 1384 1380 1376 1375 1379 1381 1382 1383 1385 1388 1391 1392 1393 1395 1395 1396 1396 1395 1395 1395 1395 1394 1393 1392 1390 1389 1387 1385 1383 1381 1380 1378 1376 1374 1373 1371 1370 1368 1366 1364 1361 1357 1353 1350 1347 1345 1342 1339 1336 1335 1333 1333 1333 1332 1332
1404 1405 1404 1404 1403 1402 1404 1404 1401 1395 1389 1386 1385 1382 1382 1384 1384 1381 1373 1368 1370 1373 1371 1370 1370 1369 1370 1373 1376 1378 1377 1376 1375 1374 1375 1377 1379 1380 1382 1385 1388 1389 1390 1392 1393 1394 1394 1394 1393 1393 1392 1392 1392 1391 1391 1389 1388 1386 1385 1383 1380 1378 1377 1375 1373 1372 1370 1368 1367 1365 1363 1360 1356 1352 1349 1346 1343 1341 1339 1336 1334 1332 1330 1330 1330 1330
1400 1401 1401 1401 1401 1400 1399 1400 1399 1394 1386 1384 1383 1381 1381 1385 1385 1377 1369 1367 1369 1367 1365 1365 1365 1366 1370 1372 1373 1374 1373 1372 1372 1373 1374 1377 1378 1379 1382 1384 1386 1387 1389 1390 1391 1392 1392 1392 1391 1391 1390 1389 1390 1389 1389 1388 1387 1385 1384 1382 1380 1377 1375 1374 1372 1371 1369 1367 1366 1364 1361 1358 1354 1350 1347 1344 1342 1340 1338 1335 1333 1331 1329 1328 1327 1327
1392 1396 1397 1395 1395 1396 1397 1398 1398 1392 1385 1384 1385 1383 1381 1382 1381 1377 1373 1370 1367 1365 1364 1364 1365 1366 1369 1369 1369 1370 1369 1369 1370 1372 1374 1376 1377 1379 1381 1383 1384 1386 1387 1389 1390 1390 1390 1390 1390 1389 1388 1387 1387 1386 1386 1386 1386 1384 1382 1381 1379 1377 1374 1372 1371 1369 1368 1366 1364 1363 1360 1356 1352 1349 1345 1343 1340 1338 1336 1334 1332 1330 1328 1326 1325 1325
1386 1389 1390 1387 1386 1391 1393 1392 1389 1386 1384 1385 1385 1384 1384 1384 1382 1381 1380 1375 1370 1368 1366 1364 1364 1365 1366 1365 1365 1365 1365 1366 1368 1370 1373 1375 1376 1379 1380 1382 1384 1385 1386 1387 1388 1388 1389 1389 1388 1387 1386 1386 1385 1384 1384 1384 1383 1383 1381 1379 1378 1376 1374 1372 1370 1368 1366 1365 1362 1360 1357 1354 1350 1347 1344 1342 1339 1337 1335 1333 1331 1329 1327 1325 1324 1323
1382 1383 1384 1382 1380 1381 1383 1381 1380 1382 1385 1386 1386 1386 1385 1385 1383 1382 1381 1378 1374 1372 1369 1366 1364 1364 1364 1363 1363 1362 1363 1365 1366 1368 1372 1374 1375 1377 1379 1381 1382 1384 1385 1386 1387 1387 1387 1387 1387 1386 1385 1385 1384 1382 1381 1381 1380 1380 1379 1378 1376 1375 1373 1371 1368 1366 1365 1363 1360 1358 1355 1352 1348 1345 1343 1341 1338 1336 1333 1331 1330 1328 1326 1325 1323 1322
1382 1382 1382 1381 1380 1378 1378 1378 1381 1384 1386 1386 1387 1388 1386 1384 1383 1382 1381 1380 1376 1372 1370 1368 1365 1363 1363 1362 1361 1362 1362 1363 1365 1367 1369 1371 1374 1376 1378 1380 1381 1382 1384 1384 1385 1386 1386 1385 1385 1384 1383 1383 1383 1381 1380 1379 1378 1377 1376 1376 1375 1373 1372 1369 1367 1365 1363 1361 1358 1356 1353 1350 1347 1344 1342 1340 1337 1335 1332 1330 1328 1327 1325 1324 1323 1321
1385 1387 1383 1382 1383 1381 1379 1381 1384 1387 1388 1387 1386 1386 1384 1384 1384 1383 1383 1381 1377 1372 1370 1368 1365 1363 1362 1361 1361 1362 1361 1362 1364 1365 1367 1369 1372 1374 1377 1378 1380 1381 1382 1383 1384 1384 1384 1384 1384 1382 1381 1381 1381 1380 1379 1377 1376 1375 1374 1373 1372 1371 1370 1368 1366 1363 1361 1359 1357 1354 1351 1348 1345 1343 1340 1338 1336 1334 1332 1329 1328 1326 1325 1323 1322 1321
1386 1387 1384 1385 1386 1382 1379 1383 1386 1386 1386 1386 1386 1386 1386 1384 1383 1383 1382 1380 1376 1372 1370 1367 1365 1363 1361 1361 1362 1362 1362 1363 1364 1364 1366 1368 1370 1373 1376 1377 1379 1380 1381 1382 1383 1383 1383 1383 1382 1381 1380 1380 1379 1379 1378 1376 1375 1374 1372 1370 1369 1368 1367 1366 1365 1363 1360 1358 1355 1353 1350 1347 1344 1341 1339 1337 1335 1333 1330 1328 1326 1325 1324 1323 1321 1320
1392 1389 1390 1392 1389 1381 1379 1385 1387 1382 1380 1383 1386 1388 1390 1388 1385 1383 1382 1378 1375 1371 1369 1367 1365 1363 1362 1361 1363 1363 1363 1363 1363 1364 1365 1367 1370 1373 1375 1376 1378 1379 1380 1381 1382 1382 1382 1382 1381 1380 1380 1379 1378 1377 1376 1375 1374 1372 1370 1368 1367 1365 1363 1362 1361 1360 1358 1356 1354 1351 1348 1345 1342 1340 1338 1336 1334 1332 1330 1327 1325 1324 1323 1322 1321 1320
1397 1396 1398 1393 1384 1381 1388 1396 1398 1392 1387 1387 1389 1391 1392 1390 1387 1384 1381 1378 1375 1372 1370 1368 1367 1365 1363 1362 1363 1363 1363 1363 1364 1364 1365 1367 1370 1372 1374 1376 1377 1379 1380 1381 1381 1382 1382 1381 1381 1380 1379 1378 1377 1376 1375 1374 1373 1371 1369 1367 1365 1363 1362 1360 1358 1357 1355 1353 1351 1348 1345 1343 1341 1339 1338 1336 1334 1332 1329 1327 1324 1323 1322 1321 1321 1320
1407 1408 1408 1399 1391 1393 1401 1406 1407 1404 1400 1396 1395 1395 1393 1391 1388 1385 1382 1380 1378 1376 1373 1370 1368 1366 1364 1363 1363 1363 1363 1363 1364 1365 1366 1368 1371 1372 1374 1376 1377 1378 1380 1380 1381 1381 1381 1380 1380 1380 1379 1377 1376 1375 1374 1373 1372 1370 1369 1367 1365 1363 1361 1359 1357 1355 1354 1352 1350 1347 1344 1342 1340 1339 1337 1335 1333 1331 1328 1325 1323 1322 1321 1320 1320 1319